Waarnemingen

Advertentie
Mijn weer
Avignon, Frankrijk (7563): temperatuur & dauwpunt: 20.05.2017 16:00:00 - 26.05.2017 16:00:00 (CEST)Avignon, Frankrijk (7563): temperatuur 5cm: 20.05.2017 16:00:00 - 26.05.2017 16:00:00 (CEST)Avignon, Frankrijk (7563): windsnelheid & windstoten: 20.05.2017 16:00:00 - 26.05.2017 16:00:00 (CEST)Avignon, Frankrijk (7563): windrichting: 20.05.2017 16:00:00 - 26.05.2017 16:00:00 (CEST)Avignon, Frankrijk (7563): luchtdruk: 20.05.2017 16:00:00 - 26.05.2017 16:00:00 (CEST)Avignon, Frankrijk (7563): zicht: 20.05.2017 16:00:00 - 26.05.2017 16:00:00 (CEST)Avignon, Frankrijk (7563): neerslag: 20.05.2017 16:00:00 - 26.05.2017 16:00:00 (CEST)
Datum & Tijd tt [°C] td [°C] tt 5cm [°C] ff [km/u] ff [kn] fx [km/u] fx [kn] dd ppp [hPa] vv [km] rr [mm]
26.05.2017 16:00:00 28,3 14,2 - 18 10 31 17 ZW 1016,3 15 0,0
26.05.2017 15:00:00 28,7 14,9 30,2 20 11 34 18 ZW 1016,3 19 0,0
26.05.2017 14:00:00 27,2 14,9 29,9 12 6 23 13 Z 1016,6 21 0,0
26.05.2017 13:00:00 26,6 15,6 29,4 9 5 22 12 WZW 1016,8 19 0,0
26.05.2017 12:00:00 26,4 16,6 28,4 9 5 19 10 ZW 1017,0 17 0,0
26.05.2017 11:00:00 24,3 16,6 25,0 9 5 16 9 W 1017,1 17 0,0
26.05.2017 10:00:00 22,8 15,4 21,5 4 2 8 4 NNW 1017,3 15 0,0
26.05.2017 09:00:00 20,2 16,6 18,9 3 2 7 4 WZW 1017,2 11 0,0
26.05.2017 08:00:00 17,7 16,6 13,9 0 0 3 2 N 1016,8 7 0,0
26.05.2017 07:00:00 14,5 13,4 11,3 4 2 6 4 O 1016,6 6 0,0
26.05.2017 06:00:00 13,9 12,6 11,6 2 1 7 4 ZZO 1016,6 6 0,0
26.05.2017 05:00:00 14,4 12,9 11,7 2 1 4 2 OZO 1016,4 7 0,0
26.05.2017 04:00:00 15,0 13,5 12,4 4 2 6 3 O 1016,3 9 0,0
26.05.2017 03:00:00 15,6 13,8 13,4 2 1 5 3 OZO 1016,0 11 0,0
26.05.2017 02:00:00 16,9 14,5 14,0 2 1 5 3 ZO 1016,2 13 0,0
26.05.2017 01:00:00 18,0 15,3 16,0 3 1 10 5 ZZO 1016,3 15 0,0
26.05.2017 00:00:00 18,8 15,3 17,6 6 3 16 9 Z 1016,0 14 0,0
25.05.2017 23:00:00 20,5 15,3 19,6 10 6 16 9 WZW 1015,8 20 0,0
25.05.2017 22:00:00 22,1 15,7 20,9 11 6 20 11 WZW 1015,2 29 0,0
25.05.2017 21:00:00 23,9 16,2 23,1 13 7 24 13 WZW 1014,4 34 0,0
25.05.2017 20:00:00 26,4 15,7 28,1 15 8 23 13 WZW 1013,8 29 0,0
25.05.2017 19:00:00 27,9 16,8 30,6 14 8 25 13 ZW 1013,6 32 0,0
25.05.2017 18:00:00 29,3 16,5 32,6 15 8 27 15 ZW 1013,5 41 0,0
25.05.2017 17:00:00 30,6 12,0 35,5 11 6 23 13 W 1013,4 52 0,0
25.05.2017 16:00:00 30,3 11,3 34,6 8 5 27 15 ZW 1013,6 20 0,0
25.05.2017 15:00:00 30,0 12,0 35,2 14 8 35 19 NNW 1013,7 32 0,0
25.05.2017 14:00:00 29,6 12,1 33,4 13 7 29 16 NNW 1013,9 14 0,0
25.05.2017 13:00:00 28,8 12,2 31,6 22 12 39 21 N 1014,0 11 0,0
25.05.2017 12:00:00 27,5 11,5 28,2 24 13 42 23 N 1014,0 11 0,0
25.05.2017 11:00:00 26,3 11,2 25,6 26 14 44 24 N 1013,9 12 0,0
25.05.2017 10:00:00 24,8 11,7 22,6 21 11 42 23 N 1014,0 13 0,0
25.05.2017 09:00:00 22,9 11,0 19,7 22 12 38 21 N 1014,2 13 0,0
25.05.2017 08:00:00 21,0 11,6 17,6 18 10 32 18 N 1013,8 13 0,0
25.05.2017 07:00:00 19,5 11,3 17,2 16 9 40 22 N 1013,9 25 0,0
25.05.2017 06:00:00 19,2 11,7 17,3 21 11 37 20 N 1013,6 60 0,0
25.05.2017 05:00:00 19,3 11,8 17,8 19 10 35 19 N 1014,1 60 0,0
25.05.2017 04:00:00 20,0 11,7 18,3 19 10 42 23 N 1014,3 60 0,0
25.05.2017 03:00:00 20,7 11,6 19,2 24 13 47 25 N 1014,6 60 0,0
25.05.2017 02:00:00 21,2 11,5 19,7 24 13 45 24 N 1015,1 60 0,0
25.05.2017 01:00:00 22,0 11,1 20,6 24 13 40 22 N 1015,5 60 0,0
25.05.2017 00:00:00 22,6 10,7 20,7 16 9 45 24 N 1016,1 60 0,0
24.05.2017 23:00:00 23,5 11,5 22,2 29 16 46 25 N 1015,8 60 0,0
24.05.2017 22:00:00 24,1 11,8 22,8 26 14 48 26 N 1015,8 60 0,0
24.05.2017 21:00:00 25,1 12,0 24,1 29 16 50 27 NNW 1015,5 30 0,0
24.05.2017 20:00:00 26,7 12,4 27,4 27 14 49 26 N 1015,6 12 0,0
24.05.2017 19:00:00 28,1 12,8 30,7 22 12 41 22 N 1015,7 10 0,0
24.05.2017 18:00:00 28,9 13,2 32,1 24 13 44 24 N 1015,9 10 0,0
24.05.2017 17:00:00 29,5 14,1 33,2 23 12 36 20 NNW 1016,3 10 0,0
24.05.2017 16:00:00 29,8 14,0 33,3 21 12 34 18 N 1016,7 12 0,0
24.05.2017 15:00:00 29,7 15,0 33,4 19 10 33 18 N 1017,2 12 0,0
24.05.2017 14:00:00 28,7 14,1 32,3 19 10 32 18 NNW 1017,6 14 0,0
24.05.2017 13:00:00 28,1 14,7 31,2 16 9 35 19 N 1018,0 14 0,0
24.05.2017 12:00:00 26,8 14,5 27,9 24 13 39 21 N 1018,4 16 0,0
24.05.2017 11:00:00 25,4 14,8 25,9 25 14 45 25 N 1018,5 19 0,0
24.05.2017 10:00:00 24,0 14,7 22,6 26 14 40 22 N 1018,9 27 0,0
24.05.2017 09:00:00 22,5 14,6 20,5 23 13 38 21 N 1018,8 38 0,0
24.05.2017 08:00:00 21,2 14,4 19,0 21 11 41 22 N 1018,6 60 0,0
24.05.2017 07:00:00 20,1 14,2 18,4 22 12 41 22 N 1018,4 26 0,0
24.05.2017 06:00:00 19,9 14,3 18,6 23 13 46 25 N 1018,1 60 0,0
24.05.2017 05:00:00 20,6 14,5 19,3 28 15 49 26 N 1018,2 60 0,0
24.05.2017 04:00:00 21,2 14,6 19,7 26 14 47 26 N 1018,0 60 0,0
24.05.2017 03:00:00 21,4 14,1 20,0 23 13 38 21 N 1018,1 60 0,0
24.05.2017 02:00:00 22,3 13,6 20,9 24 13 41 22 N 1018,0 60 0,0
24.05.2017 01:00:00 22,8 13,0 20,9 24 13 42 23 N 1017,8 60 0,0
24.05.2017 00:00:00 23,1 11,5 21,0 20 11 35 19 N 1017,8 60 0,0
23.05.2017 23:00:00 24,1 10,4 21,8 21 11 41 22 N 1017,6 60 0,0
23.05.2017 22:00:00 24,9 9,2 23,1 25 14 47 25 N 1017,3 60 0,0
23.05.2017 21:00:00 25,7 8,7 24,4 26 14 46 25 N 1016,8 58 0,0
23.05.2017 20:00:00 27,1 10,7 26,9 28 15 50 27 N 1016,5 10 0,0
23.05.2017 19:00:00 28,5 10,7 30,4 31 17 45 25 N 1016,4 9 0,0
23.05.2017 18:00:00 29,5 9,6 32,4 24 13 46 25 N 1016,7 10 0,0
23.05.2017 17:00:00 29,9 9,9 32,5 29 16 51 27 N 1016,7 10 0,0
23.05.2017 16:00:00 30,0 10,5 32,6 30 16 49 26 N 1016,9 12 0,0
23.05.2017 15:00:00 30,1 11,6 33,3 30 16 49 26 N 1017,2 14 0,0
23.05.2017 14:00:00 29,3 11,8 30,4 29 16 43 23 N 1017,4 19 0,0
23.05.2017 13:00:00 27,0 13,0 26,3 20 11 45 24 NNW 1018,0 28 0,0
23.05.2017 12:00:00 25,9 11,6 24,5 21 12 36 19 N 1018,1 36 0,0
23.05.2017 11:00:00 23,4 11,8 20,7 9 5 17 9 NNW 1018,6 45 0,0
23.05.2017 10:00:00 20,5 11,4 18,9 7 4 15 8 N 1018,8 47 0,0
23.05.2017 09:00:00 18,5 11,1 14,4 5 3 12 6 NNW 1018,7 50 0,0
23.05.2017 08:00:00 15,8 12,0 9,9 3 2 8 4 N 1018,5 35 0,0
23.05.2017 07:00:00 12,1 11,0 8,1 0 0 3 2 N 1018,3 17 0,0
23.05.2017 06:00:00 10,2 9,0 8,2 0 0 3 1 N 1018,0 13 0,0
23.05.2017 05:00:00 11,0 9,6 8,9 0 0 6 3 N 1017,9 18 0,0
23.05.2017 04:00:00 12,6 10,8 9,8 5 3 7 4 O 1017,9 35 0,0
23.05.2017 03:00:00 14,5 11,8 12,5 0 0 4 2 N 1018,2 45 0,0
23.05.2017 02:00:00 16,0 12,5 15,1 3 2 7 4 O 1018,3 57 0,0
23.05.2017 01:00:00 16,4 12,4 15,4 0 0 10 5 N 1018,8 59 0,0
23.05.2017 00:00:00 17,4 12,1 15,4 5 3 14 8 WZW 1018,7 60 0,0
22.05.2017 23:00:00 17,3 12,0 15,7 0 0 5 3 N 1018,6 60 0,0
22.05.2017 22:00:00 18,7 11,7 16,7 3 2 5 3 Z 1018,3 60 0,0
22.05.2017 21:00:00 20,4 10,5 18,7 5 3 14 8 ZW 1018,0 60 0,0
22.05.2017 20:00:00 21,6 10,1 21,2 10 5 19 11 W 1017,7 60 0,0
22.05.2017 19:00:00 24,7 8,2 24,6 8 4 17 9 ZW 1017,5 57 0,0
22.05.2017 18:00:00 23,5 9,8 23,8 4 2 15 8 WZW 1018,1 60 0,0
22.05.2017 17:00:00 23,5 8,4 25,1 11 6 19 10 WZW 1018,5 52 0,0
22.05.2017 16:00:00 23,3 11,4 25,2 9 5 15 8 ZW 1018,9 57 0,0
22.05.2017 15:00:00 22,4 11,8 23,7 8 4 15 8 ZW 1019,2 60 0,0
22.05.2017 14:00:00 21,8 11,8 24,0 8 4 25 13 WZW 1019,6 18 0,0
22.05.2017 13:00:00 21,5 11,2 22,6 7 4 12 7 WNW 1019,8 56 0,0
22.05.2017 12:00:00 21,2 9,4 22,6 4 2 9 5 WZW 1019,9 55 0,0
22.05.2017 11:00:00 20,7 10,8 20,3 4 2 8 5 N 1019,7 54 0,0
22.05.2017 10:00:00 18,8 10,1 20,0 4 2 8 4 NNW 1019,8 55 0,0
22.05.2017 09:00:00 17,5 10,4 14,5 5 3 9 5 ONO 1019,5 60 0,0
22.05.2017 08:00:00 13,9 11,6 10,3 6 3 10 5 N 1019,6 49 0,0
22.05.2017 07:00:00 10,8 9,7 7,9 4 2 6 4 N 1018,9 39 0,0
22.05.2017 06:00:00 9,7 8,5 6,6 0 0 4 2 N 1018,6 49 0,0
22.05.2017 05:00:00 9,0 7,8 6,6 0 0 5 3 N 1018,7 40 0,0
22.05.2017 04:00:00 9,2 7,6 7,0 5 3 6 4 O 1019,2 58 0,0
22.05.2017 03:00:00 9,4 7,8 7,2 0 0 4 2 N 1019,3 45 0,0
22.05.2017 02:00:00 10,3 8,4 7,6 0 0 6 3 N 1019,6 59 0,0
22.05.2017 01:00:00 11,3 8,7 8,8 5 3 7 4 O 1019,8 60 0,0
22.05.2017 00:00:00 11,6 8,6 8,9 3 1 8 5 NNO 1020,2 60 0,0
21.05.2017 23:00:00 14,1 9,5 10,4 4 2 7 4 OZO 1020,3 60 0,0
21.05.2017 22:00:00 16,4 9,6 12,4 3 2 9 5 Z 1020,1 60 0,0
21.05.2017 21:00:00 19,2 9,1 17,0 8 4 16 8 ZZW 1019,7 60 0,0
21.05.2017 20:00:00 22,6 6,8 23,2 12 7 23 12 Z 1019,1 46 0,0
21.05.2017 19:00:00 24,9 7,5 26,4 12 7 22 12 ZW 1018,9 56 0,0
21.05.2017 18:00:00 25,3 7,9 27,4 16 8 27 14 W 1019,2 60 0,0
21.05.2017 17:00:00 26,2 9,1 28,9 10 5 26 14 WZW 1019,1 60 0,0
21.05.2017 16:00:00 25,9 8,8 29,4 9 5 18 10 WNW 1019,4 60 0,0
21.05.2017 15:00:00 25,2 8,6 29,8 9 5 18 10 NNW 1019,9 20 0,0
21.05.2017 14:00:00 24,7 9,0 29,6 9 5 19 11 N 1020,3 48 0,0
21.05.2017 13:00:00 23,3 10,0 25,3 11 6 23 13 NW 1020,7 27 0,0
21.05.2017 12:00:00 21,8 8,3 22,9 14 8 24 13 NNW 1021,0 26 0,0
21.05.2017 11:00:00 20,8 8,1 20,4 13 7 29 16 N 1021,2 29 0,0
21.05.2017 10:00:00 19,0 8,6 17,3 13 7 26 14 NNO 1021,2 33 0,0
21.05.2017 09:00:00 16,9 7,8 13,6 18 10 31 17 N 1021,3 42 0,0
21.05.2017 08:00:00 15,0 7,3 11,7 13 7 27 14 N 1021,2 54 0,0
21.05.2017 07:00:00 13,4 6,7 11,1 15 8 32 17 N 1020,5 57 0,0
21.05.2017 06:00:00 12,7 6,5 11,5 22 12 48 26 N 1020,4 60 0,0
21.05.2017 05:00:00 13,6 6,5 12,0 27 15 48 26 N 1020,5 60 0,0
21.05.2017 04:00:00 13,9 6,3 12,2 24 13 42 23 N 1020,9 60 0,0
21.05.2017 03:00:00 14,3 6,1 12,4 27 14 41 22 N 1020,9 60 0,0
21.05.2017 02:00:00 14,3 5,9 12,6 14 8 41 22 N 1021,8 60 0,0
21.05.2017 01:00:00 15,2 5,7 13,3 20 11 34 18 NNW 1021,8 60 0,0
21.05.2017 00:00:00 15,7 5,6 14,1 18 10 51 28 NNW 1021,7 60 0,0
20.05.2017 23:00:00 16,3 5,3 15,2 27 15 41 22 NNW 1021,4 60 0,0
20.05.2017 22:00:00 17,5 4,4 16,0 25 13 40 21 N 1021,6 60 0,0
20.05.2017 21:00:00 18,0 4,2 16,5 22 12 55 30 N 1021,3 53 0,0
20.05.2017 20:00:00 20,0 4,1 21,1 29 15 54 29 N 1020,8 15 0,0
20.05.2017 19:00:00 21,1 4,2 23,7 28 15 50 27 N 1020,4 11 0,0
20.05.2017 18:00:00 21,6 5,1 24,7 26 14 48 26 N 1020,6 10 0,0
20.05.2017 17:00:00 21,9 5,7 25,0 26 14 45 25 N 1020,5 10 0,0
20.05.2017 16:00:00 21,8 6,1 24,7 23 12 43 23 N 1020,7 10 0,0

tt = temperatuur
td = dauwpunt
tt 5cm = temperatuur 5cm
ff = windsnelheid
fx = windstoten
dd = windrichting
ppp = luchtdruk
vv = zicht
rr = neerslag

Weerstations in de omgeving